Wind_Speed
5 6 6 6 5 3 4 6 8 8 7 5 4 4 5 6 6 11 21 23 21 18 17 16 14 12 11 11 11 12 13 13 14 15 16 16 16 17 18 20 21 21 22 22 21 19 17 15 15 14 12 11 10 10 11 11 13 14 14 15 15 16 17 16 17 19 19 22 27 30 29 32 36 36 35 36 36 34 31 28 26 24 21 19 18 20 20
7 6 7 7 5 4 3 3 5 7 8 7 6 6 7 6 6 15 22 20 17 16 15 15 15 14 15 15 14 15 15 15 16 16 17 17 17 18 18 19 20 20 21 22 22 21 18 16 15 15 15 15 13 11 10 11 12 14 14 14 15 15 16 17 17 17 18 19 22 23 24 26 28 27 24 25 28 29 27 22 21 22 21 19 20 21 21
8 8 9 9 9 10 7 4 4 5 6 7 7 8 9 9 11 17 18 16 15 15 14 14 15 15 16 16 17 18 18 18 18 17 17 17 17 17 17 18 18 19 21 21 22 22 21 19 17 15 15 16 16 14 12 11 12 14 14 14 14 14 15 16 16 16 17 17 17 17 17 16 16 15 14 13 15 19 19 19 21 22 19 18 20 21 19
9 8 7 5 6 8 7 5 5 6 6 7 8 9 10 12 15 18 18 17 17 17 16 16 16 15 16 16 17 18 19 19 19 19 18 18 18 18 19 19 20 20 22 22 23 23 23 22 20 17 17 16 16 15 13 11 12 14 15 15 15 15 15 16 16 16 16 16 15 15 13 11 11 11 10 10 11 13 15 18 22 22 17 16 18 18 17
11 11 8 6 6 4 4 6 7 7 7 8 9 11 12 15 18 20 19 19 18 18 18 17 16 16 16 16 17 17 17 18 18 19 19 19 20 20 21 21 20 20 21 23 24 25 26 25 23 22 22 21 19 17 15 14 14 15 16 17 17 18 18 18 17 17 17 16 16 15 14 12 12 11 11 11 11 12 13 14 16 17 16 15 15 15 15
10 11 10 7 5 3 4 7 7 6 7 8 9 12 16 18 19 19 18 18 18 18 18 17 16 16 16 16 17 17 17 16 16 17 18 18 20 21 21 21 21 21 23 25 26 27 27 27 27 27 26 26 25 22 19 18 17 17 18 19 20 21 21 20 19 18 17 17 16 16 15 14 13 13 12 12 12 12 13 13 14 15 15 15 15 14 13
8 10 10 4 2 5 9 10 10 9 8 8 9 12 17 18 16 16 16 17 18 18 17 16 16 16 16 16 17 17 17 17 16 15 16 16 17 19 19 20 21 22 24 25 25 26 27 29 30 30 28 28 29 27 24 21 20 20 20 20 21 22 22 22 21 20 19 19 18 17 16 15 14 14 14 14 15 15 15 15 16 16 16 16 16 15 15
8 9 9 4 3 10 14 14 14 12 10 9 10 11 15 17 15 16 17 17 17 18 17 16 15 15 15 15 15 16 17 18 18 18 18 18 18 19 19 20 21 23 25 25 24 25 27 30 32 32 31 31 31 30 28 25 22 21 22 22 22 23 22 21 21 21 21 20 20 19 18 17 16 16 16 17 17 18 18 18 19 19 19 19 19 19 19
11 9 8 8 9 13 16 17 16 15 13 12 11 11 13 16 16 18 18 17 16 16 17 17 16 15 14 15 16 18 18 19 20 20 20 20 20 20 20 21 22 23 25 26 27 26 26 27 29 31 31 32 33 32 30 28 25 24 25 25 25 25 23 22 22 22 22 22 21 20 20 19 18 18 18 18 18 20 21 22 22 23 23 23 23 22 22
15 12 9 9 7 9 17 20 17 16 16 13 13 12 13 15 17 17 18 17 16 15 14 15 15 15 16 17 17 18 19 19 20 20 20 21 21 21 22 22 23 24 25 26 27 28 28 27 27 26 27 28 30 30 30 30 30 30 29 29 29 28 25 24 24 24 24 24 24 22 21 20 20 20 20 20 20 21 22 23 24 24 24 24 23 23 23
19 17 11 8 6 10 18 22 19 17 15 13 12 11 12 17 17 17 17 16 16 16 15 15 15 15 17 18 17 17 18 18 19 20 21 22 22 23 23 24 25 25 25 25 26 26 27 27 28 28 27 28 28 28 28 29 30 31 31 31 31 30 27 26 26 26 25 25 24 23 22 21 21 21 22 21 21 22 23 23 23 23 23 23 23 23 23
20 19 14 9 7 11 19 23 21 17 14 14 13 8 11 18 19 17 18 17 16 17 17 17 18 18 19 20 20 20 20 19 20 21 21 22 22 23 24 25 25 26 26 26 26 25 26 26 28 29 30 30 30 30 28 28 28 28 28 27 27 27 27 26 25 25 25 25 24 23 23 23 23 23 23 23 23 24 24 24 25 24 24 24 24 23 23
18 19 14 9 7 13 19 22 21 18 15 15 15 11 11 16 17 16 16 16 16 17 17 19 20 20 22 24 24 25 25 25 25 25 24 23 22 22 23 25 26 27 27 28 28 28 28 28 28 30 31 32 32 32 31 31 30 29 28 28 27 27 27 27 27 27 25 24 24 24 24 24 25 25 26 25 25 26 27 27 26 26 26 26 25 24 23
11 14 13 9 7 12 18 19 20 20 16 14 15 14 13 13 14 14 15 15 16 17 18 20 21 23 24 26 27 28 28 28 28 29 29 28 27 27 27 27 28 30 30 31 31 31 31 31 31 32 33 33 33 34 34 33 32 31 31 31 30 30 31 31 31 29 27 25 24 25 25 25 25 27 29 29 29 29 29 28 27 26 26 26 26 25 25
6 8 8 6 4 9 14 17 17 16 14 13 15 14 12 12 12 13 14 15 16 16 18 19 20 22 24 26 28 29 30 30 31 31 32 33 33 34 34 34 35 36 36 36 35 34 34 34 33 34 34 35 35 35 35 35 33 33 33 32 32 33 34 34 32 29 27 26 26 27 28 27 27 28 30 32 33 32 31 30 29 28 27 27 27 27 27
3 4 6 7 6 7 9 11 11 9 9 11 12 11 10 10 10 11 13 15 17 18 20 21 22 24 26 27 29 31 33 34 35 36 37 39 39 40 41 41 42 43 43 43 42 41 40 39 39 38 37 37 37 36 36 36 36 35 35 35 35 35 36 36 34 31 30 30 30 30 30 30 31 30 31 33 34 34 33 33 32 31 31 30 29 29 29
3 4 5 8 9 7 5 5 4 3 3 4 5 7 8 9 11 14 16 18 21 23 24 26 28 29 30 31 32 34 35 37 38 39 41 41 42 43 44 44 45 46 47 47 47 47 46 45 45 45 44 44 42 40 39 38 38 38 37 37 37 37 37 38 37 35 34 33 33 33 33 34 35 34 35 35 36 36 36 36 35 34 34 33 32 31 30
3 3 5 6 5 4 3 2 1 2 3 4 6 9 11 13 16 18 20 22 24 26 28 30 30 31 32 32 33 34 35 36 37 38 39 40 41 42 42 42 43 43 44 44 45 45 45 44 44 44 46 49 49 48 45 43 42 41 40 39 39 39 39 40 40 40 38 36 36 36 36 37 37 37 37 37 37 37 37 37 36 36 35 35 34 32 30
2 3 4 4 2 2 3 4 5 5 6 7 10 13 15 17 20 22 23 25 26 27 28 29 30 31 31 32 33 33 34 35 36 37 38 38 39 40 41 41 41 41 41 42 42 42 42 41 41 41 43 45 47 48 48 48 47 46 45 43 43 42 41 41 41 42 42 41 39 39 38 39 39 39 39 39 39 39 38 37 37 36 36 35 32 29 28
0 2 4 4 3 4 6 7 8 9 11 12 14 17 18 20 21 22 23 24 25 26 28 29 30 31 31 32 33 33 34 34 35 36 37 38 38 39 39 40 41 41 41 41 41 41 41 41 41 42 42 42 43 44 44 45 46 48 49 48 47 46 45 44 42 42 42 42 42 41 40 40 40 40 40 39 38 38 37 37 36 35 34 32 29 27 28
2 3 4 4 6 8 9 10 12 14 15 17 18 19 19 20 21 22 23 24 25 27 27 28 28 29 29 30 32 33 33 34 35 36 37 38 39 40 40 40 40 41 41 41 41 42 42 41 42 42 42 42 43 43 43 42 43 44 47 48 49 49 48 47 45 43 42 41 42 43 43 42 41 41 41 40 38 37 37 37 36 34 32 30 29 28 28
4 4 5 6 8 10 12 13 15 16 17 18 19 19 20 21 22 22 23 24 25 26 27 27 28 28 29 30 32 34 34 35 36 37 38 39 40 41 41 41 41 41 42 42 42 42 42 42 42 42 42 43 43 43 43 44 43 44 44 45 46 48 48 48 47 45 43 41 40 40 41 42 42 42 41 40 39 40 40 37 34 31 30 29 28 27 26
5 6 6 8 9 11 12 14 15 16 17 18 19 20 21 22 22 22 23 23 24 25 27 28 29 31 31 32 33 34 34 34 36 37 38 39 40 40 40 40 41 41 41 42 43 43 42 42 42 42 42 42 42 43 43 44 45 45 44 44 44 45 46 46 47 46 45 43 40 38 38 39 41 41 40 39 39 40 39 37 34 31 30 29 27 26 25
4 6 8 9 10 10 11 13 15 16 18 19 20 21 21 22 22 23 23 24 25 27 28 30 31 31 31 31 31 32 32 33 35 37 38 39 39 39 39 39 40 40 40 41 41 42 42 42 43 43 43 43 43 43 43 43 44 45 46 46 45 44 44 44 44 43 43 42 42 41 39 39 39 39 38 38 39 39 38 36 34 33 32 30 27 26 26
7 9 10 10 10 10 12 14 15 17 18 19 20 21 22 22 23 23 24 25 27 28 28 28 28 28 28 29 29 31 33 34 36 38 38 38 38 38 38 39 39 39 39 39 39 40 40 41 42 42 43 43 43 44 44 43 44 44 45 46 46 45 44 44 44 43 42 41 41 41 40 39 39 38 38 38 38 37 36 35 34 34 32 30 28 28 29
9 10 11 10 11 12 14 16 17 17 18 19 20 20 21 22 23 23 23 24 25 25 26 26 25 26 26 27 29 30 32 32 32 32 32 31 30 30 29 29 29 29 29 30 32 33 36 38 40 42 43 43 43 44 45 45 45 45 45 45 45 44 44 43 43 43 43 43 43 42 41 39 39 38 38 37 36 35 34 33 33 33 32 31 31 31 32
10 11 11 12 13 14 15 16 17 17 18 18 18 19 20 21 21 21 22 22 23 24 24 24 24 23 23 25 26 27 26 25 24 22 21 19 17 15 14 14 15 15 17 18 20 23 26 29 32 35 38 40 42 43 44 45 46 46 46 45 44 44 43 43 42 42 42 43 44 45 44 42 40 39 38 37 36 35 34 34 34 34 33 32 32 32 33
11 12 13 13 14 15 16 17 17 18 17 16 17 18 19 19 20 20 21 21 21 22 21 21 21 20 20 21 21 19 18 18 18 16 14 12 11 11 12 13 14 15 16 17 18 18 20 22 25 28 30 32 36 40 43 44 45 46 46 46 45 45 44 43 42 41 41 41 43 44 45 45 44 42 40 39 38 37 37 37 37 36 34 32 31 31 30
14 14 14 14 15 16 17 18 18 17 16 16 17 18 18 19 19 19 20 20 19 18 17 17 17 17 17 16 14 14 14 14 13 12 11 11 12 13 14 16 18 20 20 19 19 18 18 19 21 23 25 27 30 32 36 40 43 44 44 45 45 45 44 44 43 42 41 40 41 41 42 44 44 44 43 41 39 38 37 37 37 36 33 30 28 28 27
14 14 14 14 15 16 17 17 17 16 15 16 17 18 18 19 19 18 18 17 16 15 14 13 13 13 13 11 10 11 11 11 10 10 10 11 13 14 16 19 21 21 20 19 20 21 22 21 20 19 20 22 26 27 28 30 35 38 41 42 43 43 43 42 42 42 41 41 40 39 39 40 40 41 40 38 36 35 35 34 34 33 30 27 26 26 26
14 13 13 14 15 15 16 16 15 14 14 15 16 17 18 18 17 16 15 13 12 11 11 11 12 11 10 8 7 9 9 9 9 9 10 12 14 16 17 19 20 20 20 21 23 24 25 25 23 21 18 16 19 22 23 23 25 29 33 37 39 39 39 40 39 39 39 39 39 38 36 35 35 35 35 33 31 31 31 31 30 28 26 25 25 25 24
13 13 13 14 15 15 15 14 13 12 13 15 15 16 15 15 14 13 11 10 9 9 10 11 11 10 7 5 6 7 7 7 8 9 10 12 14 15 16 17 18 20 22 23 24 25 27 28 26 23 19 15 13 14 17 19 20 21 24 27 31 33 35 35 36 36 35 36 36 36 34 32 31 32 32 30 29 29 29 28 27 25 24 25 25 24 22
12 13 13 14 15 15 13 12 10 11 12 14 14 13 13 13 12 10 9 8 8 9 10 11 10 7 5 6 6 6 5 6 7 9 11 13 14 13 13 15 19 22 24 24 25 26 27 28 29 26 20 15 13 12 12 13 16 17 18 19 21 24 27 30 32 32 32 32 32 33 32 30 29 30 30 30 29 28 27 26 25 24 24 23 23 21 20
11 12 13 14 14 12 10 8 8 10 11 12 12 12 12 11 10 9 9 9 9 9 9 10 9 8 8 8 8 8 9 10 10 10 12 13 13 11 11 14 19 22 24 25 26 27 27 28 30 29 23 17 14 12 9 7 6 7 11 14 14 16 20 23 26 27 28 28 28 28 28 29 29 29 30 29 28 27 27 26 24 23 22 21 19 19 19
11 11 12 12 11 8 6 5 7 9 10 10 10 10 10 10 9 9 9 9 10 10 9 10 10 10 10 10 10 11 12 12 12 12 13 14 12 10 11 14 18 21 23 25 27 28 29 29 31 30 24 18 15 14 11 10 9 6 3 6 8 11 13 16 19 21 21 21 21 22 23 25 26 26 26 26 26 26 25 24 22 22 21 20 20 21 21
10 9 9 8 7 5 4 4 5 7 8 7 8 9 10 10 10 9 8 8 9 9 9 9 11 12 12 12 12 13 13 14 14 14 15 14 12 10 11 13 16 18 21 24 26 29 31 31 31 31 27 21 18 19 20 19 17 15 13 10 9 9 10 12 15 16 16 15 16 17 19 21 23 23 22 21 21 21 21 20 20 19 18 18 19 18 17
9 7 6 5 5 5 4 2 3 4 4 4 6 7 8 9 10 11 11 11 12 11 10 10 11 13 14 14 14 14 15 15 14 14 14 13 13 13 13 13 13 15 18 22 26 28 31 31 31 31 30 26 23 22 25 27 27 25 23 19 15 12 11 12 13 14 15 15 15 16 17 18 20 21 20 19 18 18 17 18 19 19 19 18 17 16 16
7 6 5 5 4 4 4 2 1 2 1 2 4 5 6 7 9 10 11 13 14 14 13 12 13 14 14 13 13 14 14 14 14 13 13 13 13 14 14 13 12 13 17 22 25 27 28 29 30 30 32 33 30 26 24 24 25 26 26 24 22 19 17 16 15 16 16 16 15 15 15 15 16 17 17 17 18 18 20 22 22 21 19 18 17 17 16
7 5 5 6 5 4 3 2 2 2 1 0 1 2 4 6 7 9 10 12 13 14 14 14 15 15 14 13 12 11 11 10 10 10 10 11 11 12 13 13 13 14 17 21 23 24 25 25 27 29 32 34 35 33 30 25 22 21 21 21 20 20 20 19 19 18 17 16 15 14 14 14 15 17 18 20 22 24 25 24 22 19 17 16 15 14 14
6 5 5 6 6 5 4 3 4 4 3 2 1 1 2 4 6 7 9 10 11 12 13 14 14 14 13 12 12 12 11 10 9 9 9 10 11 12 12 12 12 14 15 18 20 22 23 22 22 25 28 30 32 33 33 32 29 27 25 23 20 18 17 17 16 16 16 17 17 18 18 20 21 23 23 24 24 23 22 20 18 17 15 14 13 13 13
5 5 6 6 6 6 5 4 5 6 5 4 2 1 1 3 4 5 7 8 9 11 12 12 12 12 12 12 11 11 11 11 10 10 11 11 11 11 11 11 11 12 13 15 16 19 20 20 20 21 23 25 27 28 29 30 31 31 30 29 27 24 22 21 20 21 21 22 23 23 23 23 22 21 20 20 19 18 17 16 15 14 13 13 13 13 13
7 6 7 7 7 6 6 5 6 7 8 6 4 3 2 1 2 4 5 7 8 9 11 11 11 11 11 11 11 11 11 11 11 10 10 10 10 10 10 11 12 13 14 14 13 14 15 17 18 19 19 21 22 23 23 24 25 26 26 26 26 25 24 23 23 23 23 22 21 21 20 19 18 17 16 15 15 15 14 13 13 12 12 13 13 13 13
9 7 8 8 8 8 7 7 7 8 10 9 8 6 4 2 1 2 3 5 6 8 9 10 10 11 12 11 11 11 12 12 11 11 11 10 10 11 11 11 12 13 13 13 12 11 11 12 14 16 17 17 18 18 18 18 19 20 20 21 21 21 21 20 20 20 19 18 17 17 16 16 15 14 14 13 13 13 13 13 13 13 13 13 13 12 12
9 8 8 9 10 10 9 8 8 9 11 11 10 9 7 5 3 2 2 3 4 5 7 8 9 11 12 12 13 13 13 13 13 13 13 13 13 12 12 12 12 13 13 13 12 11 10 9 10 11 12 13 14 14 13 13 14 15 15 16 16 16 16 16 16 15 15 14 14 14 14 13 13 12 13 13 13 14 14 14 13 13 12 12 11 11 10
9 8 8 9 11 11 10 9 8 9 10 12 12 11 10 8 6 4 3 3 2 2 4 5 7 9 11 12 13 13 14 15 15 15 15 15 15 14 14 14 14 14 13 13 12 11 10 10 9 9 9 10 10 10 9 9 10 10 11 11 11 12 12 12 12 12 11 11 12 12 12 12 12 12 12 12 13 13 13 12 12 12 11 11 10 9 8
9 9 9 10 11 12 12 10 9 9 10 12 13 13 12 11 9 6 5 5 4 2 1 2 3 5 7 8 10 11 12 13 14 15 15 15 15 16 16 16 16 16 15 15 14 13 12 11 11 10 9 9 8 8 8 9 9 9 9 8 7 7 7 7 8 9 9 9 9 9 10 10 10 10 11 11 11 11 11 11 10 10 9 9 8 8 7
10 9 10 11 12 13 14 13 12 10 10 11 13 14 14 13 11 8 6 6 6 4 3 2 2 2 2 3 5 6 8 9 11 12 13 14 15 16 16 17 17 17 17 17 16 15 15 14 14 13 12 11 10 10 9 9 9 8 8 8 7 6 5 5 5 5 5 4 3 3 5 8 9 9 10 10 9 9 9 8 8 7 7 7 6 6 6
13 11 11 12 13 14 15 15 14 12 11 11 12 13 14 15 14 11 9 8 7 6 5 3 3 4 3 2 2 3 4 5 7 8 9 11 12 13 14 15 16 17 17 17 17 17 17 17 16 16 15 15 14 13 12 10 9 9 8 7 7 7 7 6 5 4 3 2 1 0 1 3 5 6 8 8 8 8 8 8 7 7 6 6 6 5 5
15 13 12 12 14 15 17 17 16 14 12 11 12 13 14 16 16 14 12 10 9 9 7 5 4 5 5 4 3 3 3 3 3 4 6 8 9 10 11 12 13 15 15 16 16 17 17 17 18 18 17 17 16 15 14 13 12 11 10 8 7 6 6 5 5 5 4 4 3 2 1 1 2 3 5 6 7 8 8 8 8 8 8 7 7 7 7
16 14 13 13 14 16 17 18 18 16 14 13 13 14 15 16 17 16 14 13 12 11 10 8 6 6 7 6 5 4 4 4 3 3 4 5 6 6 7 9 10 11 13 13 14 15 16 16 17 17 17 17 17 16 16 15 14 13 12 11 10 8 7 6 4 4 3 2 2 2 1 0 1 3 4 5 7 7 8 8 9 9 9 9 9 9 9
17 15 14 14 15 16 17 18 19 18 16 16 16 16 16 17 17 17 16 15 13 13 13 11 8 7 8 8 7 6 5 5 5 4 3 3 4 5 5 6 7 8 9 10 11 12 13 14 15 16 16 16 16 16 16 16 15 14 13 12 11 10 9 8 6 5 4 2 2 2 2 2 3 3 4 5 6 7 8 9 9 10 10 10 11 11 11
17 17 16 16 16 17 18 18 19 19 18 18 17 18 18 18 18 18 18 17 15 15 15 14 11 10 9 9 8 7 7 6 6 6 5 5 5 4 4 5 5 5 6 7 9 10 11 12 13 14 14 15 15 15 15 15 15 15 14 13 12 11 10 9 8 7 5 4 3 3 3 4 4 5 6 7 8 8 9 9 10 11 11 12 12 12 13
Wind_Direction
170 158 158 175 189 189 202 235 249 256 267 263 243 226 183 174 186 166 164 172 173 165 168 174 177 187 196 196 197 201 206 211 216 222 227 233 242 248 253 257 260 265 272 275 277 281 284 288 291 291 283 275 271 269 264 257 248 241 240 238 234 231 232 238 243 242 240 242 245 246 247 253 254 250 247 244 237 231 229 228 232 233 230 234 245 249 252
190 180 187 203 235 254 232 213 223 241 251 246 234 218 195 193 199 177 173 181 183 173 177 186 190 196 199 203 210 215 220 225 226 229 233 236 241 246 250 256 261 266 270 272 273 274 276 281 285 289 286 280 277 277 273 264 253 247 242 236 232 231 229 230 235 239 239 239 243 247 249 253 253 251 252 252 244 238 236 235 236 235 233 237 246 251 256
196 210 229 238 245 245 228 188 184 209 225 224 209 192 183 182 183 183 189 199 196 187 191 196 199 203 203 206 211 214 218 224 226 230 233 235 239 242 245 251 256 261 265 267 268 267 268 270 275 280 283 283 284 286 284 275 262 254 248 239 233 230 229 229 232 235 236 235 237 243 244 241 239 239 244 247 239 232 231 230 229 228 228 239 248 251 252
187 194 217 215 204 211 202 172 179 198 203 198 186 176 174 178 181 187 195 199 194 193 195 196 199 204 203 206 211 214 218 222 225 228 230 231 236 240 244 250 252 254 258 262 264 263 262 262 264 266 267 270 275 279 279 271 260 254 250 246 241 235 229 228 229 230 231 231 232 236 237 229 221 223 227 226 222 219 223 231 235 232 228 236 246 248 247
186 186 195 189 181 188 181 172 184 205 213 207 193 181 174 172 174 181 188 190 190 195 198 198 202 206 208 212 217 220 223 223 225 227 228 229 232 235 242 249 251 249 250 254 257 258 258 258 257 258 260 260 259 261 262 259 256 254 252 251 250 245 236 230 228 227 229 229 227 225 223 215 209 210 214 217 221 222 226 236 244 244 241 241 243 242 242
193 194 193 190 195 203 183 176 181 192 196 196 190 178 172 171 173 179 186 188 190 198 203 206 212 216 218 222 225 229 232 232 232 232 232 234 235 238 242 244 246 247 247 248 248 249 253 256 255 255 256 258 257 254 251 251 254 256 254 252 252 249 243 235 229 226 226 226 223 218 212 209 210 216 222 226 229 231 233 238 243 245 246 245 243 243 245
199 190 181 180 222 194 178 173 173 176 184 197 197 181 175 178 179 183 189 190 192 199 205 212 221 227 230 232 235 238 241 242 242 242 242 244 245 246 246 244 243 245 248 249 253 256 257 257 255 250 247 250 254 252 248 247 251 254 253 250 250 249 245 239 230 225 222 219 215 210 207 212 221 228 233 234 235 236 236 236 236 237 238 237 238 242 245
203 188 181 188 177 167 168 170 172 176 184 197 201 184 175 178 180 182 187 188 190 196 203 211 220 227 233 239 242 246 251 253 255 256 256 257 257 256 255 253 250 250 251 252 258 263 262 259 257 252 248 247 248 248 246 245 245 247 247 248 249 247 243 237 230 225 221 216 212 211 214 222 230 233 234 234 234 233 232 231 229 228 228 230 234 238 242
207 190 162 155 155 161 172 176 177 183 184 188 199 192 177 178 182 182 182 182 185 195 204 209 215 222 230 237 241 246 249 250 252 254 255 256 259 261 263 263 261 260 258 257 257 257 256 256 258 258 255 251 247 245 243 241 241 243 242 243 244 240 235 233 230 228 225 222 219 221 226 231 234 233 231 229 228 227 227 226 226 226 228 231 234 237 239
208 190 147 136 153 184 192 189 187 192 193 195 207 206 193 192 194 192 188 184 187 198 208 215 221 226 230 234 239 244 246 248 249 251 253 255 259 262 265 266 267 266 265 263 261 259 258 258 260 260 258 257 254 249 244 240 240 240 237 235 236 233 231 232 234 232 231 230 231 232 233 232 231 228 226 226 226 226 225 225 225 226 228 231 233 237 239
211 199 179 169 188 198 194 192 192 194 197 198 201 206 208 207 206 207 205 201 200 205 211 218 221 225 230 234 239 243 246 248 249 250 252 253 255 257 259 261 263 264 264 264 265 266 266 266 265 262 259 258 257 256 251 245 241 236 231 231 234 233 231 233 237 238 236 234 235 233 231 229 227 226 226 225 225 225 225 226 227 229 231 234 238 243 247
217 206 193 184 190 187 187 191 195 195 196 195 190 195 215 214 214 221 223 223 224 223 224 228 229 231 237 242 244 247 249 252 253 254 254 252 251 252 253 255 258 261 264 266 268 268 268 266 266 265 262 260 258 256 253 250 248 241 236 237 242 243 238 234 235 239 240 239 238 235 231 228 225 226 228 228 227 227 228 229 230 233 236 239 242 246 250
215 206 193 176 179 189 188 190 193 191 186 189 195 205 218 215 217 224 228 233 241 242 244 247 247 249 252 254 255 256 256 257 258 259 260 258 256 255 256 257 258 260 263 266 268 269 269 267 267 267 266 265 263 261 259 257 257 254 250 250 252 254 250 242 239 240 242 243 244 243 241 237 233 231 231 230 229 231 232 234 235 237 240 242 246 249 252
191 193 185 163 166 191 190 188 191 190 187 195 205 209 212 212 215 224 233 242 248 251 254 256 257 260 263 265 266 266 265 264 262 261 261 260 259 259 260 261 261 261 262 263 264 265 265 266 266 267 267 267 265 264 263 262 260 258 255 255 255 255 252 248 247 248 248 248 249 252 253 252 248 242 237 233 233 235 237 238 239 241 243 246 249 252 256
156 167 165 152 173 197 193 192 195 195 197 207 209 206 209 216 223 233 245 253 258 263 267 269 269 270 270 272 274 275 275 275 274 272 272 270 269 267 267 266 266 266 265 264 262 261 260 260 260 261 262 263 263 263 262 261 259 256 254 254 255 255 252 247 245 245 246 248 251 255 259 261 259 253 246 240 238 239 242 245 245 247 249 251 253 255 258
185 170 151 146 157 177 186 193 199 199 206 216 218 219 225 232 241 254 264 270 276 279 280 281 281 280 280 279 280 280 281 281 281 281 280 278 277 275 273 271 270 269 268 267 265 263 261 259 257 256 256 256 256 257 258 258 256 255 253 253 253 253 253 252 248 245 245 247 248 249 251 253 253 253 251 248 245 244 246 249 251 253 256 257 258 260 262
220 209 179 155 150 155 165 176 182 186 207 230 243 255 263 269 275 278 280 282 285 286 287 288 287 287 286 285 284 283 282 281 280 280 279 278 277 276 275 274 272 271 270 269 267 266 264 263 260 257 255 253 252 251 251 251 250 250 250 251 251 250 249 250 249 246 247 249 251 251 251 249 247 247 247 247 247 247 248 250 252 255 258 260 262 264 265
131 150 173 166 164 179 193 205 246 270 283 287 283 282 283 284 284 285 286 287 289 290 290 290 289 288 287 285 284 283 282 281 280 279 278 277 276 275 275 274 273 272 271 270 269 268 266 265 262 258 255 254 254 252 250 248 246 245 244 244 246 246 245 245 246 246 246 247 252 256 257 256 254 253 251 250 249 249 251 253 255 259 263 265 266 266 265
121 145 167 175 210 260 285 294 294 294 292 286 283 283 285 286 287 289 290 290 290 290 288 287 287 286 286 285 285 284 283 281 280 279 278 277 277 276 275 274 273 273 272 271 270 268 267 265 263 260 257 256 255 255 254 252 249 246 244 242 241 241 240 240 241 243 244 244 245 249 253 256 258 260 260 259 257 256 257 258 260 264 268 269 269 267 262
130 180 174 188 233 261 280 285 284 285 283 282 283 285 285 286 286 287 287 287 287 287 286 286 286 286 286 286 285 284 282 282 281 280 280 279 278 276 275 274 274 273 272 271 270 269 267 265 263 261 259 257 256 256 256 255 252 249 247 244 243 242 241 239 238 238 239 240 242 245 247 249 252 257 260 261 259 258 259 261 263 266 268 269 268 262 256
185 179 193 228 256 272 282 284 284 287 289 290 293 293 291 291 290 290 289 289 288 286 286 286 286 286 286 286 285 285 285 284 284 283 282 280 280 279 278 277 276 274 273 271 270 268 267 266 264 263 260 258 256 255 255 254 253 251 249 247 245 245 245 244 243 242 240 240 242 245 246 247 248 252 256 258 259 262 265 266 268 270 270 268 263 257 255
223 222 229 247 264 278 287 289 291 294 296 298 299 299 298 297 295 293 292 290 288 288 287 287 288 288 289 289 289 289 289 289 287 286 284 282 281 280 279 278 277 276 275 274 272 270 268 267 266 265 262 259 257 254 254 253 251 250 249 248 247 246 246 246 247 247 246 245 244 244 245 247 248 248 249 252 257 263 268 270 271 271 270 267 262 259 260
235 238 248 261 272 281 290 294 296 299 301 302 302 301 300 298 296 293 291 289 289 289 289 290 291 291 292 292 292 291 291 291 289 287 286 284 283 282 281 280 278 277 276 274 273 272 271 269 268 266 263 261 257 254 253 251 250 248 247 246 246 246 245 245 246 248 249 249 249 248 247 248 249 249 249 251 255 261 265 267 269 270 270 268 267 267 269
259 273 283 287 290 294 295 296 299 301 302 300 299 299 299 298 296 294 293 293 293 293 293 293 293 294 295 295 295 294 294 293 292 291 290 290 289 287 285 282 280 278 276 273 272 271 270 269 268 265 262 260 257 254 251 250 250 249 248 247 246 245 244 243 242 243 245 246 247 248 248 248 249 249 250 252 255 257 261 263 266 268 269 268 268 271 273
298 306 307 306 305 304 302 302 302 301 299 298 298 299 298 296 295 295 296 297 296 296 295 296 296 298 299 299 299 299 298 297 296 296 295 293 291 288 286 284 283 280 278 275 272 270 269 267 266 264 262 259 256 253 250 248 248 248 249 249 249 247 246 244 242 241 241 241 242 243 244 245 246 248 250 251 251 252 255 258 262 266 267 265 266 270 273
315 319 319 317 314 312 310 308 305 302 301 300 299 296 294 294 296 297 298 298 298 298 298 299 300 301 302 302 302 301 300 301 302 301 299 297 294 292 292 291 291 289 286 283 279 276 272 269 267 264 263 260 257 254 251 248 246 245 246 247 248 247 246 245 244 243 241 240 240 240 241 242 244 246 249 251 251 251 253 255 258 261 262 261 264 269 272
327 327 323 318 315 313 310 306 303 302 301 297 292 290 292 296 299 300 300 301 302 302 303 303 304 304 304 304 302 302 305 310 314 315 313 312 312 316 320 323 322 318 311 304 298 291 285 279 274 269 266 263 260 256 253 249 247 245 244 244 244 244 244 244 244 244 243 242 241 241 241 242 243 245 248 250 251 252 254 256 259 261 260 260 264 268 269
328 325 320 316 314 311 309 307 304 302 298 293 291 294 298 301 302 303 305 307 306 305 305 306 305 306 305 302 302 308 315 320 326 332 337 344 354 359 356 350 344 339 334 327 318 308 298 290 283 278 273 268 262 256 252 250 247 245 244 243 242 241 241 241 241 241 242 242 242 242 242 242 243 245 247 250 252 253 253 254 257 260 261 262 264 265 264
327 323 319 316 313 310 309 309 306 301 298 297 300 304 307 309 310 310 310 309 307 306 306 305 305 307 304 301 308 322 329 329 333 342 350 358 1 357 352 351 352 352 350 345 338 329 320 308 297 287 280 275 269 263 255 250 247 245 243 243 242 241 241 240 239 238 239 240 241 241 240 240 242 244 246 249 251 252 251 252 255 257 260 261 261 259 259
323 319 316 313 310 309 310 308 304 301 302 305 309 313 314 314 313 311 310 309 308 308 307 308 313 313 306 302 317 334 336 335 341 349 355 359 356 353 354 359 1 360 356 351 347 344 342 339 331 317 299 284 277 273 266 256 250 245 243 242 241 241 240 239 238 238 237 238 240 240 239 238 239 241 244 247 248 247 247 249 252 254 256 255 253 253 254
314 314 313 310 310 312 311 307 302 302 305 311 317 319 318 316 314 311 310 310 311 311 315 324 330 322 308 307 326 336 334 336 342 350 358 359 356 357 4 8 8 4 0 357 354 352 352 353 349 342 329 309 291 283 278 270 259 250 245 242 240 239 238 237 237 236 236 236 237 238 238 237 235 236 240 242 241 241 244 246 247 249 249 246 245 247 247
307 310 310 309 311 313 309 302 300 305 312 318 323 323 321 320 318 314 313 316 321 324 333 342 341 331 324 337 346 335 325 329 341 355 8 10 6 8 15 17 12 10 9 9 6 3 4 6 4 357 349 339 321 303 292 283 274 262 252 245 240 237 235 233 232 233 233 233 234 235 235 234 233 233 235 236 237 240 243 243 244 245 242 238 238 241 242
307 308 308 307 310 309 302 297 302 311 317 323 328 331 330 327 323 323 330 337 341 346 352 353 351 356 17 28 15 359 360 15 20 24 30 28 21 20 24 21 16 17 20 21 19 18 18 18 17 13 9 3 354 338 316 297 283 270 257 245 236 232 229 226 226 227 228 229 231 231 231 231 229 228 229 231 234 238 239 240 241 239 234 234 238 239 234
311 305 303 304 305 301 293 293 305 315 322 329 337 340 338 335 339 349 353 350 352 1 7 7 14 34 54 56 48 48 56 59 53 48 47 43 35 32 29 20 16 20 23 24 25 29 30 29 25 22 21 21 15 6 357 347 323 279 250 235 224 219 217 217 218 220 223 225 227 228 227 226 225 225 226 227 229 233 235 235 234 233 233 234 230 219 211
310 301 300 301 299 292 284 293 308 318 327 339 348 352 352 356 8 14 6 356 1 12 16 19 31 48 60 63 62 64 70 70 61 52 50 46 40 35 27 18 15 20 24 26 29 34 37 36 31 27 28 34 36 36 44 57 63 68 119 183 188 191 198 204 208 212 216 218 219 219 219 218 219 222 223 221 222 226 228 227 228 232 234 224 205 195 196
311 302 299 297 293 281 272 284 308 320 334 351 2 5 9 19 28 31 27 23 25 29 29 32 42 54 63 67 66 67 72 71 62 51 46 44 40 35 26 17 17 22 26 29 33 38 41 40 36 32 35 45 56 60 66 73 79 84 92 109 132 150 166 179 186 192 196 198 199 202 204 206 209 214 214 209 209 214 220 223 224 222 213 197 187 187 193
320 307 292 282 278 272 262 270 306 321 341 13 20 15 21 32 38 40 41 42 43 46 51 53 55 59 64 67 67 65 63 60 54 48 44 41 39 39 34 27 25 29 33 35 38 41 43 43 40 37 41 49 59 67 72 75 78 82 86 92 101 115 133 149 160 168 175 177 180 185 188 190 195 200 202 201 204 210 214 210 202 190 179 176 182 191 197
317 302 281 270 267 262 253 251 280 295 327 34 36 29 34 41 43 44 45 42 41 43 47 52 58 63 64 65 66 65 62 59 54 48 42 38 37 37 36 35 36 38 40 42 42 44 46 46 44 43 46 50 55 62 69 75 79 81 83 85 89 97 109 123 135 147 155 158 160 164 169 175 183 191 196 200 201 197 188 180 174 172 174 179 185 188 191
307 291 270 260 260 258 248 223 198 206 211 112 52 41 42 43 41 42 44 43 40 36 35 38 47 56 61 63 65 66 67 67 65 59 51 46 40 35 33 36 40 42 44 47 48 48 50 52 52 50 50 53 56 59 62 67 74 81 85 89 93 98 105 113 120 128 135 141 148 156 165 172 177 179 177 174 170 167 164 163 165 169 172 172 172 174 177
300 282 261 252 254 255 240 207 192 201 211 210 194 41 38 38 36 36 39 40 36 30 27 27 32 40 48 55 60 62 62 62 63 62 58 50 41 31 26 31 40 46 49 52 51 50 52 56 58 57 56 56 58 60 61 64 67 71 76 81 87 94 104 114 122 129 136 143 149 153 155 155 154 153 152 151 151 151 152 154 155 156 156 157 161 166 171
307 282 265 255 254 253 238 211 203 212 221 222 218 222 25 31 30 27 27 28 26 24 23 23 23 28 36 42 47 52 55 55 54 54 54 51 45 35 29 31 40 47 50 51 52 52 52 55 59 64 66 66 65 66 66 67 68 70 72 74 77 82 90 100 109 116 122 127 130 131 131 132 132 134 134 135 136 137 139 140 142 146 151 157 163 168 173
324 298 278 267 260 254 245 232 224 223 222 220 219 223 240 352 18 14 10 11 14 17 19 22 26 31 34 36 38 42 46 46 45 46 47 48 46 43 40 40 43 46 47 49 51 54 54 55 58 64 69 71 72 72 72 72 73 73 74 74 75 77 82 88 94 98 103 106 108 108 109 111 114 118 121 125 128 131 135 141 149 156 160 163 167 171 174
319 306 288 276 266 255 246 240 236 229 224 221 222 226 231 235 288 356 354 358 6 12 16 24 36 42 42 42 42 44 47 49 48 46 47 49 48 47 47 47 48 49 51 52 51 52 52 56 60 64 67 69 71 72 72 73 74 74 75 75 75 75 77 81 85 89 92 95 97 99 100 104 109 115 122 129 136 143 150 157 163 166 167 167 169 169 168
302 293 284 274 264 254 244 236 233 230 225 223 225 227 228 227 228 254 308 329 354 9 12 23 39 48 49 49 50 52 53 55 56 54 54 55 54 53 52 51 51 52 53 54 54 53 52 53 58 63 66 68 69 69 68 69 71 72 72 73 74 77 78 80 83 86 90 95 100 104 108 113 119 127 135 142 148 154 159 163 165 165 163 162 161 158 156
292 276 270 267 262 255 244 234 230 228 225 224 226 230 231 229 228 235 258 270 283 345 7 18 35 45 49 51 53 55 56 56 56 56 55 54 54 56 58 57 56 55 54 55 56 55 54 54 55 59 62 63 65 64 61 60 67 73 73 71 72 78 83 86 87 88 91 98 107 113 116 118 124 132 140 146 150 154 157 158 158 157 156 154 151 150 150
299 272 258 258 260 256 247 237 230 226 224 223 225 229 232 232 230 231 241 245 242 244 288 345 16 35 44 48 50 53 54 54 53 53 52 51 51 54 57 58 59 59 58 57 57 57 57 57 58 60 62 63 63 62 58 56 60 69 74 74 75 77 84 92 95 92 89 91 100 111 117 123 128 135 141 146 151 155 156 157 156 156 155 153 152 153 156
312 287 263 255 255 255 251 243 233 227 226 224 223 226 230 231 228 224 227 232 232 228 229 262 299 324 360 26 34 41 45 47 48 48 48 46 46 47 49 52 55 57 58 59 58 58 58 58 59 60 61 61 61 63 64 64 62 63 65 66 66 66 69 84 99 103 102 100 102 117 131 137 140 144 149 154 156 158 160 161 161 161 161 160 159 161 166
307 300 279 261 254 253 252 247 237 228 224 225 224 225 227 227 224 220 221 227 232 230 224 234 264 276 281 300 331 359 21 32 37 41 41 40 40 42 43 44 46 50 53 56 56 57 57 57 58 57 58 58 58 59 60 61 62 63 64 64 64 64 63 65 68 73 80 81 56 37 158 159 159 162 165 167 168 168 171 174 175 177 180 180 179 180 185
295 297 286 267 255 252 253 251 244 235 227 225 227 227 227 225 223 219 217 222 231 233 229 231 250 264 268 272 281 298 325 351 11 25 29 29 31 35 37 38 40 42 45 48 51 53 55 56 57 56 56 55 55 55 55 55 56 57 58 58 59 58 58 59 60 59 57 54 49 45 48 204 211 206 201 198 196 194 195 196 197 200 202 204 206 209 213
281 286 283 271 258 253 252 253 250 244 234 226 224 226 226 225 223 220 218 220 228 233 231 228 239 259 266 266 269 277 289 301 316 342 4 10 14 20 27 32 35 35 37 39 42 44 47 50 53 55 55 54 53 52 52 51 51 51 52 52 52 52 50 50 49 48 46 44 39 34 25 293 255 245 238 232 227 224 224 225 225 225 226 226 227 229 232
271 277 279 273 262 254 251 252 252 248 238 229 224 224 225 224 223 222 220 220 225 233 234 231 234 250 262 264 264 266 273 280 287 297 313 330 343 355 6 16 24 28 31 33 34 35 38 41 44 47 50 51 51 50 49 47 46 46 44 44 44 45 44 43 40 36 30 16 343 302 275 263 258 255 253 250 248 246 245 246 246 245 245 244 244 245 247
263 269 273 270 261 252 249 250 251 249 244 236 229 226 226 224 223 224 223 222 224 232 236 236 238 246 256 260 261 263 266 272 277 282 287 297 308 321 333 344 355 7 18 23 25 26 28 31 35 38 41 43 45 45 45 44 43 42 39 38 37 36 35 33 31 28 21 8 348 322 298 282 271 264 260 258 258 256 256 256 257 257 257 258 258 260 261
Height
3059 3060 3060 3061 3063 3064 3065 3066 3067 3067 3067 3068 3069 3069 3070 3070 3071 3072 3073 3074 3075 3075 3077 3078 3079 3080 3081 3082 3083 3084 3085 3086 3087 3087 3088 3089 3089 3090 3090 3091 3091 3091 3091 3091 3091 3091 3092 3092 3093 3093 3093 3094 3094 3095 3095 3095 3096 3095 3095 3095 3095 3096 3096 3096 3097 3097 3097 3098 3099 3099 3101 3101 3101 3103 3104 3104 3105 3107 3108 3109 3111 3112 3113 3114 3115 3116 3117
3059 3060 3060 3061 3062 3064 3065 3066 3066 3066 3067 3067 3067 3068 3069 3070 3070 3071 3072 3074 3074 3075 3075 3076 3077 3078 3079 3080 3081 3082 3083 3083 3084 3085 3085 3086 3087 3087 3088 3088 3089 3089 3089 3090 3090 3089 3089 3089 3090 3090 3091 3091 3091 3092 3092 3093 3093 3093 3093 3093 3093 3093 3094 3094 3094 3095 3095 3095 3095 3097 3098 3098 3098 3099 3100 3100 3101 3103 3105 3107 3108 3109 3110 3111 3112 3112 3113
3058 3059 3059 3060 3061 3063 3064 3065 3065 3066 3066 3066 3066 3067 3067 3068 3069 3071 3072 3073 3074 3075 3075 3075 3076 3077 3078 3078 3079 3080 3081 3081 3081 3082 3083 3083 3084 3084 3085 3086 3086 3086 3086 3087 3087 3087 3086 3086 3086 3087 3087 3088 3088 3089 3089 3090 3090 3090 3090 3090 3090 3091 3091 3092 3092 3093 3093 3093 3093 3094 3094 3095 3095 3096 3097 3098 3099 3100 3102 3103 3104 3105 3107 3108 3108 3108 3109
3057 3058 3058 3059 3060 3061 3063 3063 3064 3064 3064 3065 3065 3065 3066 3067 3068 3069 3070 3071 3072 3073 3074 3074 3074 3075 3076 3077 3078 3078 3079 3079 3079 3080 3080 3081 3081 3082 3082 3083 3083 3083 3083 3083 3083 3083 3083 3083 3083 3084 3084 3084 3085 3085 3086 3087 3087 3088 3088 3088 3088 3088 3088 3089 3090 3090 3090 3091 3091 3091 3091 3092 3093 3093 3094 3096 3097 3098 3100 3100 3101 3103 3104 3105 3105 3106 3107
3056 3057 3058 3058 3059 3060 3061 3062 3063 3063 3063 3064 3064 3065 3066 3066 3066 3067 3068 3069 3070 3071 3072 3072 3073 3074 3075 3075 3076 3077 3077 3078 3078 3078 3078 3078 3079 3079 3080 3080 3080 3080 3080 3080 3080 3080 3080 3080 3081 3081 3081 3081 3081 3082 3083 3084 3084 3085 3086 3086 3086 3086 3086 3086 3087 3088 3088 3088 3089 3089 3089 3090 3091 3092 3093 3094 3095 3096 3097 3098 3099 3101 3102 3103 3103 3104 3104
3055 3056 3057 3058 3058 3059 3060 3060 3061 3062 3063 3063 3063 3064 3065 3065 3066 3067 3067 3067 3069 3070 3070 3071 3071 3072 3073 3074 3075 3076 3076 3076 3077 3077 3077 3077 3077 3077 3077 3077 3077 3077 3077 3077 3076 3076 3076 3077 3077 3078 3079 3079 3078 3079 3079 3080 3081 3082 3082 3083 3084 3084 3085 3085 3085 3086 3086 3086 3087 3087 3088 3088 3089 3090 3091 3092 3093 3094 3095 3096 3097 3098 3099 3100 3100 3101 3102
3054 3055 3056 3057 3057 3057 3058 3059 3060 3061 3062 3062 3063 3063 3064 3064 3065 3066 3066 3066 3067 3068 3069 3069 3070 3071 3072 3073 3074 3074 3075 3075 3075 3075 3076 3076 3076 3076 3076 3075 3075 3075 3074 3074 3074 3073 3073 3074 3073 3073 3075 3076 3076 3076 3076 3077 3077 3078 3078 3079 3080 3081 3082 3083 3084 3084 3084 3085 3085 3086 3086 3087 3088 3089 3090 3090 3091 3092 3093 3094 3095 3096 3097 3097 3098 3099 3100
3052 3053 3054 3055 3056 3056 3057 3058 3058 3059 3060 3061 3061 3062 3063 3063 3064 3064 3065 3065 3065 3066 3067 3068 3069 3070 3070 3071 3072 3073 3073 3073 3073 3074 3074 3074 3074 3074 3074 3074 3073 3073 3072 3072 3071 3071 3071 3071 3071 3070 3071 3072 3072 3073 3074 3074 3074 3075 3075 3075 3076 3076 3078 3079 3080 3081 3082 3083 3084 3084 3085 3086 3086 3087 3088 3089 3090 3090 3091 3092 3093 3094 3095 3096 3097 3098 3099
3051 3051 3053 3054 3056 3056 3056 3056 3057 3058 3058 3059 3060 3061 3062 3062 3063 3063 3064 3064 3065 3066 3066 3067 3068 3068 3069 3070 3070 3071 3071 3071 3071 3071 3072 3072 3072 3072 3072 3071 3071 3071 3070 3070 3069 3068 3069 3069 3069 3068 3068 3068 3068 3069 3070 3071 3071 3072 3073 3073 3073 3074 3074 3075 3077 3078 3079 3080 3081 3082 3083 3083 3084 3085 3086 3087 3088 3088 3089 3090 3091 3092 3093 3094 3095 3096 3096
3048 3050 3052 3055 3056 3054 3053 3054 3055 3056 3057 3058 3058 3059 3060 3061 3061 3062 3064 3064 3065 3066 3066 3067 3067 3068 3068 3068 3068 3068 3068 3069 3069 3069 3069 3069 3069 3069 3069 3069 3069 3068 3068 3068 3067 3066 3066 3067 3067 3067 3067 3067 3066 3066 3066 3067 3067 3068 3069 3070 3070 3071 3072 3073 3074 3075 3075 3077 3078 3079 3080 3081 3082 3082 3083 3084 3085 3086 3087 3088 3089 3089 3090 3091 3092 3092 3093
3046 3047 3048 3051 3051 3051 3051 3052 3054 3054 3056 3056 3057 3058 3059 3059 3059 3061 3062 3064 3065 3066 3066 3066 3066 3067 3066 3066 3066 3066 3066 3066 3066 3066 3066 3066 3066 3066 3066 3066 3066 3065 3065 3065 3064 3064 3064 3064 3064 3064 3064 3065 3065 3065 3064 3064 3064 3064 3065 3066 3066 3067 3068 3069 3071 3072 3072 3074 3075 3075 3077 3078 3079 3079 3080 3081 3082 3083 3084 3084 3085 3086 3087 3087 3088 3089 3089
3043 3044 3045 3047 3048 3048 3049 3050 3052 3053 3054 3055 3056 3057 3056 3056 3057 3059 3060 3062 3063 3064 3065 3065 3066 3065 3065 3065 3065 3065 3064 3064 3064 3064 3064 3063 3063 3064 3064 3063 3063 3062 3062 3062 3061 3061 3061 3062 3061 3061 3061 3061 3061 3062 3062 3063 3063 3063 3064 3064 3064 3065 3065 3066 3067 3068 3069 3070 3071 3072 3073 3074 3075 3076 3077 3078 3079 3079 3080 3081 3082 3082 3083 3084 3084 3085 3085
3041 3042 3043 3044 3046 3046 3047 3049 3050 3052 3053 3054 3054 3053 3052 3053 3055 3057 3058 3059 3060 3061 3062 3063 3063 3063 3063 3062 3062 3062 3062 3062 3062 3062 3061 3061 3061 3061 3061 3061 3060 3060 3059 3059 3059 3058 3058 3058 3058 3058 3058 3058 3058 3058 3059 3059 3060 3061 3062 3062 3062 3062 3063 3063 3064 3065 3065 3066 3067 3069 3070 3071 3072 3073 3073 3074 3075 3076 3076 3077 3078 3078 3079 3080 3080 3081 3082
3040 3040 3041 3043 3044 3045 3046 3048 3049 3049 3051 3051 3051 3050 3051 3052 3053 3054 3056 3057 3057 3058 3059 3059 3060 3060 3060 3059 3059 3059 3059 3059 3059 3059 3058 3058 3058 3058 3057 3057 3056 3056 3055 3055 3055 3055 3055 3054 3054 3053 3053 3053 3054 3054 3055 3055 3057 3058 3058 3058 3058 3059 3059 3059 3060 3061 3062 3062 3063 3065 3066 3067 3069 3070 3070 3071 3072 3072 3072 3073 3074 3075 3075 3076 3076 3077 3078
3039 3039 3040 3042 3044 3044 3045 3046 3047 3048 3048 3049 3049 3049 3050 3051 3052 3052 3053 3054 3055 3055 3056 3056 3056 3057 3056 3056 3056 3055 3055 3055 3055 3054 3054 3053 3053 3053 3053 3052 3052 3050 3050 3050 3050 3050 3050 3050 3050 3049 3048 3048 3049 3049 3050 3051 3052 3052 3053 3053 3054 3054 3054 3055 3056 3057 3057 3058 3060 3061 3061 3063 3064 3065 3066 3067 3067 3067 3068 3069 3069 3070 3071 3072 3073 3073 3074
3039 3039 3039 3041 3042 3043 3044 3045 3046 3046 3047 3048 3048 3049 3049 3050 3051 3051 3052 3052 3052 3052 3053 3053 3053 3053 3053 3053 3052 3052 3051 3051 3050 3049 3049 3048 3047 3047 3046 3046 3046 3044 3044 3043 3044 3044 3045 3045 3045 3045 3044 3043 3043 3044 3045 3046 3046 3047 3048 3048 3049 3050 3051 3051 3051 3052 3053 3054 3055 3056 3057 3058 3059 3060 3062 3062 3063 3063 3064 3064 3065 3066 3067 3068 3069 3069 3070
3039 3039 3039 3040 3042 3043 3044 3044 3045 3046 3047 3047 3048 3049 3049 3050 3050 3050 3050 3050 3050 3049 3049 3049 3049 3049 3049 3049 3048 3047 3046 3046 3045 3043 3042 3041 3040 3039 3039 3038 3038 3037 3036 3036 3036 3036 3037 3038 3038 3039 3038 3037 3037 3038 3039 3040 3040 3041 3041 3042 3043 3045 3046 3047 3047 3048 3049 3050 3051 3052 3053 3054 3054 3055 3057 3057 3058 3059 3060 3061 3061 3062 3063 3064 3065 3066 3066
3039 3039 3040 3041 3042 3043 3043 3044 3045 3046 3046 3047 3048 3048 3049 3049 3049 3048 3048 3048 3047 3046 3046 3045 3045 3044 3044 3043 3043 3042 3041 3040 3039 3037 3036 3035 3034 3033 3032 3031 3030 3029 3029 3028 3028 3028 3028 3029 3030 3030 3030 3030 3030 3031 3033 3034 3034 3035 3035 3036 3037 3038 3040 3041 3042 3043 3044 3045 3047 3048 3049 3049 3050 3051 3052 3053 3053 3054 3055 3056 3057 3058 3059 3060 3061 3062 3062
3039 3040 3040 3041 3042 3042 3043 3044 3044 3045 3046 3047 3047 3047 3047 3047 3046 3046 3045 3044 3044 3043 3042 3041 3040 3039 3039 3038 3037 3036 3035 3034 3033 3031 3030 3029 3027 3026 3025 3024 3023 3022 3021 3021 3021 3020 3021 3022 3022 3021 3022 3022 3022 3024 3025 3026 3027 3028 3028 3029 3031 3032 3033 3035 3036 3037 3038 3040 3041 3043 3044 3045 3046 3047 3047 3048 3049 3050 3051 3052 3053 3054 3055 3056 3057 3057 3057
3040 3040 3040 3041 3042 3042 3043 3043 3044 3044 3045 3045 3045 3045 3044 3044 3043 3042 3042 3041 3040 3039 3038 3037 3036 3035 3034 3033 3031 3030 3029 3028 3027 3025 3024 3022 3021 3020 3019 3017 3016 3016 3015 3014 3014 3013 3013 3014 3014 3013 3014 3015 3016 3016 3017 3018 3018 3019 3020 3022 3023 3025 3026 3028 3029 3030 3032 3033 3035 3037 3038 3040 3041 3042 3043 3044 3045 3046 3047 3048 3049 3050 3051 3051 3052 3052 3052
3040 3040 3041 3041 3041 3041 3041 3042 3042 3042 3042 3042 3042 3041 3040 3040 3039 3038 3037 3036 3035 3034 3033 3032 3031 3030 3029 3027 3026 3024 3023 3022 3021 3019 3017 3016 3014 3013 3012 3011 3010 3009 3008 3007 3007 3006 3006 3006 3006 3006 3007 3008 3008 3009 3009 3010 3010 3010 3011 3014 3016 3017 3019 3021 3022 3024 3025 3027 3028 3030 3032 3034 3035 3037 3038 3039 3040 3041 3042 3044 3045 3045 3046 3047 3047 3048 3047
3040 3040 3041 3041 3040 3040 3040 3040 3040 3039 3039 3039 3038 3037 3036 3035 3035 3034 3033 3032 3031 3030 3028 3027 3026 3025 3024 3023 3021 3019 3018 3016 3015 3013 3011 3009 3008 3006 3005 3004 3003 3002 3001 3000 2999 2999 2999 2999 2998 2998 2999 3000 3001 3002 3002 3002 3003 3003 3004 3006 3007 3010 3012 3014 3016 3018 3019 3021 3022 3023 3025 3027 3029 3031 3032 3034 3035 3036 3037 3039 3040 3041 3041 3042 3042 3043 3043
3039 3040 3040 3040 3040 3039 3039 3038 3037 3037 3036 3036 3035 3034 3033 3032 3031 3030 3029 3028 3027 3026 3024 3023 3022 3020 3019 3018 3016 3014 3012 3011 3008 3006 3004 3002 3001 3000 2999 2997 2996 2995 2994 2993 2992 2991 2991 2991 2990 2990 2991 2992 2993 2994 2994 2995 2995 2995 2997 2998 3000 3002 3004 3007 3009 3011 3013 3014 3016 3017 3019 3021 3023 3025 3027 3029 3030 3032 3033 3034 3035 3036 3037 3037 3038 3038 3039
3038 3038 3038 3038 3038 3037 3037 3036 3036 3035 3034 3033 3032 3031 3030 3029 3027 3026 3025 3024 3023 3022 3020 3019 3018 3016 3015 3013 3011 3009 3007 3005 3003 3000 2998 2996 2994 2993 2992 2990 2989 2987 2987 2986 2985 2984 2983 2982 2982 2982 2982 2983 2984 2985 2986 2987 2988 2988 2989 2990 2992 2994 2997 2999 3002 3004 3006 3008 3010 3012 3013 3015 3017 3019 3021 3023 3025 3027 3028 3030 3031 3031 3032 3033 3033 3034 3034
3036 3036 3036 3036 3036 3035 3035 3034 3034 3033 3032 3030 3029 3028 3027 3026 3024 3023 3022 3021 3019 3018 3017 3015 3014 3012 3011 3009 3007 3004 3002 3000 2997 2994 2992 2990 2988 2986 2984 2983 2981 2980 2979 2978 2977 2976 2976 2975 2974 2974 2973 2974 2975 2976 2977 2979 2980 2981 2982 2983 2984 2987 2990 2992 2995 2997 3000 3002 3004 3006 3008 3009 3011 3013 3015 3018 3020 3022 3023 3025 3026 3027 3028 3028 3029 3029 3030
3034 3034 3034 3034 3033 3033 3032 3032 3031 3030 3029 3028 3027 3025 3024 3023 3021 3020 3019 3018 3016 3015 3013 3012 3011 3009 3007 3005 3002 3000 2997 2995 2993 2989 2986 2984 2982 2980 2979 2977 2976 2974 2973 2972 2971 2970 2968 2967 2966 2966 2965 2966 2967 2967 2968 2970 2971 2972 2974 2976 2977 2980 2982 2985 2988 2990 2993 2996 2998 3000 3002 3004 3006 3008 3010 3012 3014 3017 3018 3020 3021 3022 3023 3024 3025 3025 3026
3033 3033 3032 3032 3032 3031 3030 3030 3029 3028 3027 3025 3024 3023 3021 3020 3019 3018 3016 3015 3013 3011 3010 3008 3007 3006 3004 3002 2999 2997 2994 2992 2989 2986 2983 2981 2979 2978 2976 2975 2973 2972 2970 2968 2967 2965 2963 2961 2959 2958 2957 2958 2958 2958 2959 2961 2962 2964 2966 2968 2970 2973 2975 2978 2981 2984 2986 2989 2991 2994 2996 2999 3001 3004 3006 3008 3010 3012 3014 3016 3017 3018 3019 3020 3021 3021 3022
3032 3031 3031 3030 3030 3029 3028 3027 3026 3025 3024 3023 3021 3020 3019 3017 3016 3015 3013 3012 3010 3009 3007 3005 3004 3003 3001 2999 2997 2995 2992 2990 2988 2985 2983 2981 2979 2977 2976 2974 2973 2971 2969 2966 2964 2961 2959 2956 2954 2952 2951 2950 2949 2949 2950 2951 2953 2956 2958 2960 2963 2965 2968 2971 2974 2977 2980 2982 2985 2987 2990 2993 2996 2999 3001 3004 3006 3008 3010 3011 3012 3013 3015 3016 3017 3017 3018
3030 3029 3029 3028 3028 3027 3026 3025 3024 3022 3021 3020 3019 3017 3016 3015 3013 3012 3010 3009 3008 3006 3005 3004 3002 3000 2999 2997 2994 2993 2991 2989 2987 2985 2983 2981 2980 2978 2976 2974 2972 2969 2967 2964 2961 2959 2956 2953 2950 2948 2946 2944 2942 2942 2942 2943 2945 2947 2950 2953 2956 2958 2962 2965 2968 2971 2974 2976 2979 2981 2984 2987 2991 2994 2996 2999 3001 3003 3005 3007 3008 3009 3011 3012 3013 3013 3014
3028 3028 3027 3027 3026 3025 3024 3023 3021 3020 3019 3018 3016 3015 3013 3012 3010 3009 3008 3006 3005 3004 3003 3002 3000 2998 2996 2994 2993 2991 2990 2988 2987 2985 2983 2982 2980 2978 2976 2973 2971 2968 2966 2964 2961 2957 2954 2951 2947 2944 2942 2940 2938 2937 2936 2937 2938 2940 2943 2945 2948 2952 2955 2959 2962 2965 2968 2971 2974 2976 2979 2982 2985 2989 2992 2994 2996 2998 3000 3002 3003 3005 3007 3008 3009 3010 3011
3027 3026 3026 3025 3024 3023 3022 3020 3019 3018 3017 3016 3014 3013 3011 3010 3008 3007 3006 3005 3004 3002 3001 2999 2998 2996 2995 2993 2991 2990 2989 2988 2987 2985 2984 2982 2980 2978 2975 2973 2971 2969 2967 2964 2961 2957 2953 2950 2946 2942 2939 2937 2935 2933 2932 2932 2933 2934 2936 2939 2942 2945 2949 2952 2956 2959 2963 2966 2969 2972 2975 2978 2981 2984 2987 2990 2992 2994 2996 2998 2999 3001 3003 3004 3005 3006 3007
3025 3024 3024 3023 3022 3021 3020 3019 3017 3016 3015 3014 3013 3011 3009 3008 3007 3005 3004 3004 3002 3001 2999 2998 2996 2995 2993 2992 2990 2990 2989 2988 2987 2985 2984 2982 2980 2978 2976 2974 2972 2970 2967 2964 2961 2957 2953 2949 2945 2941 2937 2935 2933 2931 2930 2929 2929 2930 2932 2934 2936 2940 2943 2947 2951 2954 2958 2961 2964 2967 2971 2974 2978 2981 2983 2986 2988 2990 2992 2995 2997 2998 3000 3001 3002 3003 3004
3023 3022 3022 3021 3020 3019 3018 3017 3016 3015 3014 3013 3012 3010 3008 3007 3006 3004 3004 3002 3001 3000 2998 2997 2995 2994 2993 2991 2990 2989 2988 2987 2987 2986 2984 2982 2981 2979 2977 2976 2974 2972 2969 2965 2962 2958 2954 2949 2945 2940 2937 2934 2932 2930 2929 2927 2927 2927 2928 2930 2932 2935 2939 2942 2946 2950 2954 2957 2960 2964 2967 2971 2974 2977 2980 2982 2985 2987 2990 2992 2994 2995 2996 2998 2999 3000 3002
3022 3021 3020 3019 3018 3017 3017 3016 3015 3014 3013 3012 3010 3009 3008 3006 3005 3004 3003 3001 3000 2999 2998 2997 2995 2994 2992 2991 2990 2989 2988 2987 2987 2986 2984 2983 2981 2980 2979 2977 2975 2973 2970 2967 2963 2959 2955 2950 2946 2942 2938 2935 2933 2931 2928 2926 2925 2925 2926 2928 2930 2933 2936 2940 2944 2947 2951 2955 2958 2961 2964 2968 2971 2974 2977 2979 2982 2985 2987 2989 2991 2992 2994 2995 2997 2998 2999
3020 3019 3018 3017 3017 3016 3016 3015 3014 3013 3012 3011 3010 3009 3007 3006 3005 3004 3003 3001 3000 2999 2998 2997 2996 2994 2992 2991 2990 2989 2988 2988 2987 2987 2985 2983 2982 2981 2980 2979 2977 2974 2972 2969 2965 2960 2956 2952 2948 2944 2941 2938 2935 2932 2929 2927 2927 2926 2927 2929 2931 2934 2936 2940 2943 2947 2950 2953 2956 2959 2962 2965 2969 2972 2975 2978 2980 2982 2984 2986 2988 2990 2991 2993 2994 2995 2997
3018 3017 3017 3016 3016 3015 3015 3014 3014 3013 3012 3011 3010 3009 3008 3007 3006 3005 3003 3002 3001 3000 2999 2998 2996 2994 2993 2992 2991 2990 2989 2988 2987 2987 2986 2985 2983 2982 2981 2980 2978 2976 2974 2970 2966 2962 2958 2955 2952 2948 2945 2941 2939 2936 2933 2931 2930 2929 2930 2932 2933 2935 2938 2941 2944 2947 2950 2953 2956 2959 2961 2964 2967 2970 2973 2976 2978 2980 2982 2984 2986 2988 2989 2991 2992 2994 2996
3017 3016 3015 3015 3015 3015 3014 3014 3013 3012 3012 3011 3010 3009 3008 3007 3007 3006 3004 3003 3002 3001 3000 2998 2997 2995 2994 2993 2992 2991 2990 2989 2988 2988 2987 2986 2985 2984 2982 2981 2979 2978 2975 2972 2968 2965 2961 2959 2956 2953 2949 2946 2943 2940 2939 2937 2935 2934 2935 2935 2937 2938 2940 2942 2945 2948 2951 2954 2956 2959 2961 2964 2967 2969 2972 2974 2976 2978 2980 2982 2984 2986 2988 2990 2992 2994 2996
3016 3015 3015 3014 3014 3014 3014 3013 3013 3012 3012 3011 3010 3009 3009 3008 3008 3007 3006 3004 3003 3002 3001 3000 2998 2996 2995 2994 2993 2992 2991 2991 2990 2989 2988 2988 2986 2985 2984 2983 2981 2979 2976 2973 2970 2968 2966 2963 2961 2958 2954 2950 2947 2945 2944 2943 2942 2941 2941 2941 2942 2943 2944 2946 2948 2950 2953 2955 2958 2960 2962 2965 2967 2969 2971 2973 2975 2977 2979 2981 2983 2985 2987 2989 2991 2993 2995
3015 3014 3014 3014 3014 3014 3013 3013 3012 3012 3012 3011 3011 3010 3009 3009 3008 3007 3007 3006 3005 3004 3003 3001 2999 2998 2997 2996 2995 2994 2993 2992 2991 2990 2990 2989 2988 2987 2985 2984 2982 2980 2977 2975 2973 2971 2970 2968 2966 2963 2960 2956 2954 2952 2950 2949 2948 2947 2947 2947 2947 2948 2949 2950 2952 2953 2955 2958 2960 2962 2963 2965 2967 2969 2970 2972 2974 2976 2979 2981 2983 2985 2987 2989 2991 2993 2995
3013 3013 3013 3013 3013 3013 3013 3012 3012 3012 3012 3011 3011 3010 3009 3009 3008 3008 3007 3006 3006 3005 3004 3003 3001 3000 2998 2997 2996 2995 2995 2994 2993 2992 2991 2989 2988 2987 2986 2985 2984 2982 2980 2978 2977 2975 2973 2972 2970 2968 2965 2963 2961 2959 2957 2956 2955 2953 2952 2952 2952 2953 2953 2954 2955 2957 2958 2960 2962 2963 2965 2966 2968 2970 2972 2974 2976 2978 2980 2982 2984 2986 2988 2990 2992 2993 2995
3012 3012 3012 3012 3012 3012 3012 3012 3011 3012 3012 3011 3011 3010 3010 3009 3008 3008 3008 3007 3007 3006 3005 3004 3003 3001 3000 2999 2998 2997 2996 2995 2994 2993 2992 2991 2990 2989 2988 2987 2985 2984 2982 2981 2979 2978 2977 2976 2974 2972 2970 2968 2967 2966 2964 2963 2962 2960 2959 2959 2959 2959 2959 2960 2960 2961 2963 2964 2966 2967 2968 2970 2971 2973 2975 2976 2978 2980 2982 2983 2985 2987 2989 2991 2992 2994 2995
3011 3011 3011 3010 3010 3011 3011 3011 3011 3011 3011 3011 3011 3010 3010 3009 3008 3008 3008 3008 3007 3006 3006 3005 3004 3003 3002 3000 2999 2998 2997 2996 2995 2994 2993 2992 2991 2990 2989 2988 2987 2985 2984 2982 2981 2981 2980 2979 2978 2976 2974 2973 2972 2971 2970 2970 2968 2967 2967 2966 2966 2966 2966 2967 2967 2968 2969 2970 2971 2971 2972 2973 2975 2976 2977 2979 2980 2982 2984 2985 2987 2989 2990 2991 2993 2994 2995
3010 3010 3009 3009 3009 3009 3010 3010 3010 3010 3010 3011 3010 3010 3010 3009 3009 3008 3008 3008 3007 3007 3006 3006 3005 3004 3003 3002 3001 3000 2999 2998 2997 2996 2994 2993 2992 2992 2991 2990 2988 2987 2985 2984 2983 2983 2982 2982 2981 2979 2978 2977 2976 2975 2975 2974 2973 2973 2972 2972 2972 2972 2972 2972 2972 2972 2973 2974 2974 2975 2976 2977 2978 2979 2980 2982 2983 2984 2986 2987 2988 2990 2991 2992 2993 2994 2995
3009 3008 3008 3008 3008 3008 3009 3009 3009 3009 3009 3010 3010 3010 3010 3009 3009 3008 3008 3008 3008 3007 3007 3007 3006 3005 3004 3004 3003 3002 3001 2999 2998 2997 2996 2995 2994 2993 2992 2991 2990 2988 2987 2986 2985 2984 2984 2983 2983 2982 2981 2980 2979 2978 2978 2978 2977 2977 2976 2976 2976 2976 2976 2976 2976 2977 2977 2978 2978 2979 2980 2981 2981 2982 2983 2984 2985 2986 2987 2988 2989 2990 2991 2992 2993 2994 2995
3007 3007 3007 3006 3006 3006 3007 3007 3008 3008 3008 3008 3009 3009 3009 3009 3009 3008 3008 3008 3008 3008 3007 3007 3007 3006 3006 3005 3004 3003 3002 3001 3000 2999 2998 2997 2996 2995 2994 2993 2991 2990 2989 2988 2987 2986 2986 2985 2984 2983 2982 2982 2981 2981 2980 2980 2980 2980 2980 2980 2979 2979 2979 2980 2980 2980 2981 2981 2981 2982 2983 2983 2984 2985 2985 2986 2987 2987 2988 2989 2990 2991 2991 2992 2993 2994 2995
3005 3005 3005 3005 3005 3005 3005 3006 3006 3006 3006 3007 3007 3008 3008 3008 3008 3008 3008 3008 3008 3008 3008 3008 3007 3007 3006 3006 3005 3005 3004 3003 3002 3001 3000 2999 2998 2997 2996 2995 2993 2992 2991 2990 2989 2988 2987 2987 2986 2985 2984 2983 2983 2982 2982 2982 2981 2981 2981 2981 2981 2982 2982 2982 2982 2982 2983 2983 2983 2984 2984 2984 2985 2986 2986 2987 2987 2988 2989 2989 2990 2991 2991 2992 2993 2994 2994
3003 3003 3003 3003 3003 3003 3003 3003 3004 3005 3005 3005 3006 3006 3007 3007 3007 3007 3007 3008 3008 3008 3008 3008 3008 3007 3007 3007 3006 3006 3005 3004 3004 3003 3002 3001 3000 2999 2998 2997 2995 2994 2993 2992 2991 2990 2989 2988 2988 2987 2986 2985 2984 2984 2983 2983 2983 2982 2982 2982 2982 2983 2983 2983 2983 2983 2984 2984 2984 2984 2984 2985 2985 2986 2987 2987 2988 2989 2989 2990 2990 2991 2991 2992 2993 2993 2994
3001 3001 3001 3001 3001 3001 3001 3001 3002 3003 3003 3004 3004 3004 3005 3005 3006 3006 3006 3007 3007 3007 3007 3007 3008 3007 3007 3007 3006 3006 3006 3005 3005 3004 3003 3003 3002 3001 3000 2999 2998 2996 2995 2994 2993 2992 2991 2990 2989 2988 2988 2987 2986 2985 2985 2984 2984 2984 2984 2984 2984 2984 2984 2984 2984 2984 2984 2985 2985 2985 2985 2985 2986 2986 2987 2987 2988 2989 2989 2990 2990 2991 2991 2992 2993 2993 2994
2998 2998 2999 2999 2999 2999 2999 2999 3000 3001 3002 3002 3002 3002 3003 3004 3004 3005 3005 3006 3006 3006 3007 3007 3007 3007 3007 3007 3006 3006 3006 3005 3005 3005 3004 3004 3003 3002 3001 3000 2999 2998 2997 2996 2995 2994 2993 2992 2991 2990 2989 2989 2988 2987 2986 2986 2985 2985 2985 2985 2984 2984 2984 2984 2985 2985 2985 2985 2985 2985 2985 2986 2986 2987 2987 2988 2988 2989 2989 2990 2990 2991 2991 2992 2992 2993 2994
2995 2996 2996 2996 2996 2997 2997 2997 2997 2998 2999 3000 3000 3000 3001 3002 3002 3003 3003 3004 3005 3005 3005 3005 3006 3006 3006 3006 3006 3006 3006 3005 3005 3005 3004 3004 3003 3003 3002 3001 3000 3000 2999 2998 2997 2996 2995 2994 2993 2992 2991 2990 2990 2989 2988 2987 2987 2986 2986 2986 2986 2985 2985 2985 2985 2985 2985 2985 2985 2985 2986 2986 2986 2987 2987 2987 2988 2988 2989 2989 2990 2990 2991 2991 2992 2992 2993
2992 2993 2993 2993 2994 2994 2994 2995 2995 2996 2996 2997 2998 2998 2998 2999 3000 3001 3001 3002 3003 3003 3004 3004 3004 3005 3005 3005 3005 3005 3005 3005 3005 3005 3004 3004 3004 3003 3003 3002 3001 3000 3000 2999 2998 2997 2997 2996 2995 2994 2993 2992 2991 2990 2990 2989 2988 2988 2987 2987 2987 2986 2986 2986 2986 2985 2985 2985 2985 2985 2985 2986 2986 2987 2987 2987 2988 2988 2989 2989 2990 2990 2990 2991 2991 2992 2992
2989 2990 2990 2991 2991 2992 2992 2992 2993 2993 2994 2994 2995 2995 2996 2997 2998 2998 2999 3000 3001 3002 3002 3002 3003 3003 3003 3004 3004 3004 3004 3004 3004 3004 3004 3003 3003 3003 3003 3002 3002 3001 3000 3000 2999 2998 2998 2997 2996 2995 2994 2993 2992 2992 2991 2990 2989 2989 2988 2988 2987 2987 2987 2987 2986 2986 2986 2985 2985 2985 2985 2985 2986 2986 2986 2986 2987 2987 2988 2988 2989 2989 2989 2990 2990 2990 2990